INTELSAT 30 (IS-30)

Last updated on Wed Jul 02 2025 00:02:46 GMT+0000 (Coordinated Universal Time)

1 40271U 14062A 25182.54842322 -.00000147 00000+0 00000+0 0 9996 2 40271 0.0131 32.2840 0001394 356.7107 353.2119 1.00270680 3265
UTC large
Height (km)
Speed (km/s)
/
Latitude / Longitude
Inclination (degrees)
Orbital Period (minutes)
Azimuth
Elevation
Range (km)
Doppler Factor

Next 0 passes for location: London (51.5072 / 0.1276)

Sorry there are no passes over London.